Location: Unspecified
(0.0000°N, 0.0000°E)
Time: 08:25:20
(UTC+00:00)

Envisat - Pass Details

Date: 24 February 2018
Orbit: 764 x 766 km, 98.2° (Epoch: 23 February)

Event Time Altitude Azimuth Distance (km) Brightness Sun altitude
Rises 20:08:12 0° 175° (S) 3,231 6.3 -28.4°
Reaches altitude 10° 20:10:32 10° 178° (S) 2,302 5.5 -28.9°
Maximum altitude 20:15:32 61° 258° (WSW) 866 3.4 -30.2°
Enters shadow 20:15:56 59° 281° (WNW) 883 3.4 -30.3°
Exits shadow 20:18:04 28° 328° (NNW) 1,389 4.4 -30.8°
Drops below altitude 10° 20:20:31 10° 338° (NNW) 2,291 5.6 -31.4°
Sets 20:22:50 0° 341° (NNW) 3,214 6.3 -31.9°
